Weather History for Szeged, Hungary

Change the Weather History Date:

Saturday, March 30, 2013

  Actual Average (LRAR) Record (LRAR)
Temperature  
Mean Temperature 48 °F -  
Max Temperature 57 °F 63 °F 71 °F (2009)
Min Temperature 39 °F 42 °F 23 °F (1998)
Degree Days  
Heating Degree Days 17    
Moisture  
Dew Point 47 °F    
Average Humidity 94    
Maximum Humidity 100    
Minimum Humidity 74    
Precipitation  
Precipitation 0.03 in 0.05 in - ()
Sea Level Pressure  
Sea Level Pressure 29.66 in    
Wind  
Wind Speed 6 mph ()    
Max Wind Speed 13 mph    
Max Gust Speed -    
Visibility 4.8 miles    
Events Rain    
Averages and records for this station are not official NWS values.
T = Trace of Precipitation, MM = Missing Value Source: Averaged Metar Reports

Daily Weather History Graph

Daily Weather History Graph

Search for Another Location

Airport:

Trip Planner

Search our weather history database for the weather conditions in past years. The results will help you decide how hot, cold, wet, or windy it might be!

Date:

Astronomy

Mar. 30, 2013 Rise Set
Actual Time 5:23 AM CET 6:05 PM CET
Civil Twilight 4:53 AM CET 6:36 PM CET
Nautical Twilight 4:17 AM CET 7:12 PM CET
Astronomical Twilight 3:39 AM CET 7:49 PM CET
Moon 10:06 PM CET 6:51 AM CET
Length of Visible Light 13h 42m
Length of Day
12h 42m
Waning Gibbous, 88% of the Moon is Illuminated
Mar 30
Waning Gibbous
Apr 3
Last Quarter
Apr 10
New
Apr 18
First Quarter
Apr 25
Full

Hourly Weather History & Observations

Time (CET) Temp. Windchill Dew Point Humidity Pressure Visibility Wind Dir Wind Speed Gust Speed Precip Events Conditions
12:45 AM 41.0 °F 33.9 °F 39.2 °F 93% 29.71 in 3.7 mi SSE 12.7 mph - N/A Rain Light Rain
1:00 AM 40 °F - 40 °F 98% 29.73 in 4 mi SSE 13.4 mph - - Rain Light Rain
1:45 AM 41.0 °F 35.8 °F 41.0 °F 100% 29.71 in 3.7 mi South 8.1 mph - N/A Rain Light Rain
2:45 AM 41.0 °F 36.4 °F 39.2 °F 93% 29.71 in 3.7 mi South 6.9 mph - N/A Rain Light Rain
3:45 AM 41.0 °F 36.4 °F 41.0 °F 100% 29.71 in 2.8 mi SE 6.9 mph - N/A Rain Rain
4:45 AM 41.0 °F - 41.0 °F 100% 29.71 in 2.5 mi SSW 2.3 mph - N/A Rain Rain
5:15 AM 41.0 °F 36.4 °F 41.0 °F 100% 29.71 in 2.5 mi SE 6.9 mph - N/A Rain Rain
5:45 AM 41.0 °F 35.8 °F 41.0 °F 100% 29.71 in 1.6 mi SE 8.1 mph - N/A Rain Rain
6:15 AM 41.0 °F 37.1 °F 41.0 °F 100% 29.71 in - SSE 5.8 mph - N/A Rain Light Rain
6:45 AM 41.0 °F 39.0 °F 41.0 °F 100% 29.68 in - ESE 3.5 mph - N/A Rain Light Rain
7:00 AM 41 °F - 41 °F 100% 29.70 in 2 mi ESE 4.5 mph - - Rain Light Rain
7:15 AM 42.8 °F 40.1 °F 42.8 °F 100% 29.71 in 2.8 mi SSE 4.6 mph - N/A Rain Light Rain
7:45 AM 42.8 °F 39.3 °F 42.8 °F 100% 29.71 in 3.7 mi South 5.8 mph - N/A   Mostly Cloudy
8:15 AM 44.6 °F 40.2 °F 44.6 °F 100% 29.71 in 3.7 mi South 8.1 mph - N/A Rain Light Rain
8:45 AM 44.6 °F 39.7 °F 42.8 °F 93% 29.71 in 6.2 mi South 9.2 mph - N/A Rain Light Rain
9:15 AM 44.6 °F 41.4 °F 44.6 °F 100% 29.71 in 6.2 mi SSE 5.8 mph - N/A   Scattered Clouds
9:45 AM 48.2 °F - 44.6 °F 87% 29.71 in 6.2 mi SSE 6.9 mph - N/A   Scattered Clouds
10:15 AM 48.2 °F - 46.4 °F 93% 29.71 in 6.2 mi SSE 9.2 mph - N/A   Scattered Clouds
10:18 AM 48.2 °F - 46.4 °F 93% 29.71 in 6.2 mi SSE 6.9 mph - N/A Rain Light Rain Showers
10:45 AM 50.0 °F - 48.2 °F 94% 29.68 in 6.2 mi South 5.8 mph - N/A   Scattered Clouds
11:15 AM 51.8 °F - 48.2 °F 88% 29.68 in 6.2 mi South 3.5 mph - N/A   Mostly Cloudy
11:45 AM 53.6 °F - 48.2 °F 82% 29.68 in 6.2 mi SSW 1.2 mph - N/A   Mostly Cloudy
12:15 PM 53.6 °F - 50.0 °F 88% 29.68 in 6.2 mi SSW 2.3 mph - N/A   Mostly Cloudy
12:45 PM 55.4 °F - 50.0 °F 82% 29.68 in 6.2 mi SSW 2.3 mph - N/A   Scattered Clouds
1:00 PM 56 °F - 50 °F 74% 29.69 in 11 mi SSW 2.2 mph - -   Partly Cloudy
1:15 PM 57.2 °F - 50.0 °F 77% 29.68 in 6.2 mi North 2.3 mph - N/A   Scattered Clouds
1:45 PM 57.2 °F - 50.0 °F 77% 29.68 in 6.2 mi NNW 2.3 mph - N/A   Scattered Clouds
2:15 PM 57.2 °F - 53.6 °F 88% 29.68 in 6.2 mi North 5.8 mph - N/A   Mostly Cloudy
2:45 PM 55.4 °F - 51.8 °F 88% 29.65 in 6.2 mi North 8.1 mph - N/A   Overcast
3:15 PM 53.6 °F - 51.8 °F 94% 29.65 in 6.2 mi North 9.2 mph - N/A   Overcast
3:45 PM 53.6 °F - 51.8 °F 94% 29.62 in 6.2 mi NNE 10.4 mph - N/A   Mostly Cloudy
4:15 PM 53.6 °F - 50.0 °F 88% 29.62 in 6.2 mi NNE 8.1 mph - N/A   Overcast
4:45 PM 53.6 °F - 51.8 °F 94% 29.62 in 6.2 mi NE 8.1 mph - N/A   Overcast
5:15 PM 53.6 °F - 51.8 °F 94% 29.62 in 6.2 mi ENE 8.1 mph - N/A   Overcast
5:45 PM 53.6 °F - 51.8 °F 94% 29.62 in 5.0 mi NE 6.9 mph - N/A Rain Light Rain
6:15 PM 53.6 °F - 51.8 °F 94% 29.62 in 2.8 mi NE 4.6 mph - N/A Rain Light Rain
6:45 PM 51.8 °F - 51.8 °F 100% 29.59 in 3.1 mi NNE 5.8 mph - N/A Rain Light Rain
7:00 PM 52 °F - 52 °F 99% 29.60 in 3 mi NNE 4.5 mph - - Rain Light Rain
7:15 PM 51.8 °F - 51.8 °F 100% 29.59 in 3.1 mi ENE 3.5 mph - N/A Rain Light Rain
7:45 PM 51.8 °F - 51.8 °F 100% 29.59 in 3.1 mi East 4.6 mph - N/A Rain Light Rain
8:15 PM 53.6 °F - 51.8 °F 94% 29.59 in 2.8 mi East 5.8 mph - N/A Rain Light Rain
8:45 PM 53.6 °F - 51.8 °F 94% 29.56 in 3.7 mi East 9.2 mph - N/A Rain Light Rain
9:45 PM 51.8 °F - 51.8 °F 100% 29.56 in 3.1 mi ESE 4.6 mph - N/A Rain Light Rain
10:45 PM 51.8 °F - 51.8 °F 100% 29.56 in 6.2 mi East 8.1 mph - N/A Rain Light Rain
11:45 PM 50.0 °F - 50.0 °F 100% 29.53 in - East 5.8 mph - N/A   Clear